Adelaide, Australia

7:48 PM ACDT on February 21, 2017 (GMT +1030)
Adelaide International

Weather History for YPAD - May, 2013

Change the Weather History Date:

Sunday, May 12, 2013

  Actual Average Record
Temperature  
Mean Temperature 60 °F -  
Max Temperature 66 °F 63 °F 73 °F (2007)
Min Temperature 53 °F 47 °F 39 °F (2004)
Degree Days  
Heating Degree Days 4    
Growing Degree Days 10 (Base 50)    
Moisture  
Dew Point 54 °F    
Average Humidity 77    
Maximum Humidity 100    
Minimum Humidity 43    
Precipitation  
Precipitation 0.31 in 0.07 in - ()
Sea Level Pressure  
Sea Level Pressure 30.03 in    
Wind  
Wind Speed 13 mph ()    
Max Wind Speed 30 mph    
Max Gust Speed 38 mph    
Visibility 6.4 miles    
Events Rain    
Averages and records for this station are not official NWS values.
T = Trace of Precipitation, MM = Missing Value Source: Averaged Metar Reports

Daily Weather History Graph

Daily Weather History Graph

Search for Another Location

Airport or City:

Trip Planner

Search our weather history database for the weather conditions in past years. The results will help you decide how hot, cold, wet, or windy it might be!

Date:

Astronomy

May. 12, 2013 Rise Set
Actual Time 7:00 AM ACST 5:23 PM ACST
Civil Twilight 6:33 AM ACST 5:50 PM ACST
Nautical Twilight 6:03 AM ACST 6:20 PM ACST
Astronomical Twilight 5:33 AM ACST 6:50 PM ACST
Moon 8:42 AM ACST (5/12) 7:03 PM ACST (5/12)
Length of Visible Light 11h 16m
Length of Day
10h 22m
Waxing Crescent, 4% of the Moon is Illuminated
May 12
Waxing Crescent
May 18
First Quarter
May 25
Full
Jun 1
Last Quarter
Jun 9
New

Hourly Weather History & Observations

Time (ACST) Temp. Dew Point Humidity Pressure Visibility Wind Dir Wind Speed Gust Speed Precip Events Conditions
12:00 AM 62 °F 58 °F 81% 30.06 in 12 mi North 12.7 mph - - Rain Light Rain
12:00 AM 62.6 °F 57.2 °F 82% 30.06 in 6.2 mi North 12.7 mph - N/A Rain Light Rain
12:30 AM 62 °F 58 °F 81% 30.06 in - North 12.7 mph - -  
12:30 AM 62.6 °F 57.2 °F 82% 30.04 in 6.2 mi North 12.7 mph - N/A Rain Light Rain
1:00 AM 62.6 °F 59.0 °F 88% 30.04 in - North 12.7 mph - N/A   Clear
1:30 AM 62.6 °F 57.2 °F 82% 30.04 in 6.2 mi North 10.4 mph - N/A Rain Light Rain
2:00 AM 62.6 °F 59.0 °F 88% 30.04 in 6.2 mi North 12.7 mph - N/A Rain Light Rain
2:30 AM 62.6 °F 59.0 °F 88% 30.04 in 6.2 mi North 11.5 mph - N/A Rain Light Rain
3:00 AM 61 °F 59 °F 89% 30.03 in 9 mi North 13.8 mph - - Rain Rain
3:00 AM 60.8 °F 59.0 °F 94% 30.01 in 6.2 mi North 13.8 mph - N/A Rain Rain
3:30 AM 61 °F 59 °F 92% 30.02 in - North 16.1 mph - -  
3:30 AM 60.8 °F 59.0 °F 94% 30.01 in 3.7 mi North 16.1 mph - N/A Rain Rain
4:00 AM 60.8 °F 60.8 °F 100% 30.01 in 3.7 mi NNW 16.1 mph - N/A Rain Rain
4:18 AM 60.8 °F 59.0 °F 94% 30.01 in 6.2 mi North 11.5 mph - N/A Rain Light Rain
4:30 AM 60.8 °F 59.0 °F 94% 30.01 in 6.2 mi North 12.7 mph - N/A Rain Light Rain
5:00 AM 60.8 °F 59.0 °F 94% 30.01 in 6.2 mi North 12.7 mph - N/A Rain Light Rain
5:17 AM 60.8 °F 59.0 °F 94% 30.01 in 6.2 mi North 10.4 mph - N/A Rain Light Rain
5:30 AM 60.8 °F 59.0 °F 94% 30.01 in 6.2 mi North 11.5 mph - N/A   Mostly Cloudy
6:00 AM 61 °F 59 °F 92% 30.04 in 16 mi North 11.5 mph - -   Partly Cloudy
6:00 AM 60.8 °F 59.0 °F 94% 30.04 in 6.2 mi North 11.5 mph - N/A   Mostly Cloudy
6:21 AM 60.8 °F 59.0 °F 94% 30.04 in - North 12.7 mph - N/A   Unknown
6:30 AM 61 °F 60 °F 95% 30.04 in - North 9.2 mph - -  
6:30 AM 60.8 °F 60.8 °F 100% 30.04 in 6.2 mi North 9.2 mph - N/A   Mostly Cloudy
6:36 AM 60.8 °F 59.0 °F 94% 30.04 in 6.2 mi North 9.2 mph - N/A Rain Light Rain Showers
7:00 AM 62.6 °F 59.0 °F 88% 30.04 in 6.2 mi NNW 9.2 mph - N/A   Mostly Cloudy
7:30 AM 62.6 °F 59.0 °F 88% 30.04 in 6.2 mi NW 8.1 mph - N/A   Mostly Cloudy
7:52 AM 62.6 °F 59.0 °F 88% 30.04 in 1.2 mi NW 9.2 mph - N/A Rain Rain Showers
8:00 AM 60.8 °F 59.0 °F 94% 30.04 in 6.2 mi West 13.8 mph - N/A Rain Light Rain Showers
8:16 AM 60.8 °F 57.2 °F 88% 30.04 in 6.2 mi WNW 8.1 mph - N/A   Partly Cloudy
8:30 AM 62.6 °F 57.2 °F 82% 30.04 in 6.2 mi West 6.9 mph - N/A   Partly Cloudy
9:00 AM 64 °F 57 °F 71% 30.06 in 12 mi NW 9.2 mph - -   Scattered Clouds
9:00 AM 64.4 °F 57.2 °F 77% 30.04 in 6.2 mi NW 9.2 mph - N/A   Partly Cloudy
9:30 AM 64 °F 56 °F 70% 30.06 in - WNW 10.4 mph - -  
9:30 AM 64.4 °F 57.2 °F 77% 30.06 in 6.2 mi WNW 10.4 mph - N/A   Scattered Clouds
10:00 AM 64.4 °F 55.4 °F 73% 30.06 in 6.2 mi NW 10.4 mph - N/A   Scattered Clouds
10:30 AM 64.4 °F 57.2 °F 77% 30.04 in 6.2 mi NW 13.8 mph - N/A   Partly Cloudy
11:00 AM 64.4 °F 55.4 °F 73% 30.04 in 6.2 mi NNW 15.0 mph - N/A   Scattered Clouds
11:30 AM 66.2 °F 53.6 °F 64% 30.04 in 6.2 mi NW 16.1 mph - N/A   Partly Cloudy
12:00 PM 66 °F 55 °F 59% 30.04 in 12 mi NNW 16.1 mph - -   Partly Cloudy
12:00 PM 66.2 °F 55.4 °F 68% 30.04 in 6.2 mi NNW 16.1 mph - N/A   Partly Cloudy
12:30 PM 64 °F 55 °F 65% 30.02 in - NNW 18.4 mph - -  
12:30 PM 64.4 °F 55.4 °F 73% 30.01 in 6.2 mi NNW 18.4 mph - N/A Rain Light Rain Showers
1:00 PM 64.4 °F 50.0 °F 59% 30.01 in 6.2 mi NW 19.6 mph - N/A   Scattered Clouds
1:30 PM 64.4 °F 51.8 °F 64% 30.01 in 5.0 mi WNW 17.3 mph - N/A Rain Light Rain Showers
2:00 PM 66.2 °F 51.8 °F 60% 29.98 in 6.2 mi NW 17.3 mph - N/A   Partly Cloudy
2:30 PM 66.2 °F 48.2 °F 52% 29.98 in 6.2 mi NW 18.4 mph - N/A   Scattered Clouds
3:00 PM 65 °F 48 °F 43% 29.99 in 9 mi NW 17.3 mph - -   Mostly Cloudy
3:00 PM 66.2 °F 48.2 °F 52% 29.98 in 6.2 mi NW 17.3 mph - N/A   Mostly Cloudy
3:30 PM 60 °F 55 °F 77% 30.00 in - West 26.5 mph - -  
3:30 PM 60.8 °F 55.4 °F 82% 29.98 in 4.3 mi West 26.5 mph 38.0 mph N/A Rain Light Rain Showers
3:34 PM 59.0 °F 55.4 °F 88% 29.98 in 1.2 mi West 29.9 mph - N/A Rain Light Rain Showers
4:00 PM 59.0 °F 57.2 °F 94% 30.01 in 3.1 mi West 20.7 mph - N/A Rain Rain Showers
4:30 PM 59.0 °F 55.4 °F 88% 30.01 in 5.0 mi WSW 19.6 mph - N/A   Light Drizzle
4:42 PM 57.2 °F 55.4 °F 94% 30.01 in 3.1 mi WSW 20.7 mph - N/A   Light Drizzle
5:00 PM 57.2 °F 53.6 °F 88% 30.01 in 5.0 mi WSW 21.9 mph - N/A   Overcast
5:30 PM 59.0 °F 50.0 °F 72% 30.01 in 5.0 mi WSW 17.3 mph - N/A   Mostly Cloudy
6:00 PM 59 °F 49 °F 61% 30.03 in 7 mi West 17.3 mph - -   Mostly Cloudy
6:00 PM 59.0 °F 50.0 °F 72% 30.01 in 6.2 mi West 17.3 mph - N/A   Mostly Cloudy
6:30 PM 60 °F 48 °F 54% 30.04 in - West 17.3 mph - -  
6:30 PM 59.0 °F 48.2 °F 67% 30.04 in 6.2 mi West 17.3 mph - N/A   Mostly Cloudy
7:00 PM 59.0 °F 46.4 °F 63% 30.04 in 6.2 mi West 17.3 mph - N/A   Scattered Clouds
7:30 PM 59.0 °F 44.6 °F 59% 30.04 in 6.2 mi West 19.6 mph - N/A   Partly Cloudy
8:00 PM 59.0 °F 44.6 °F 59% 30.04 in 6.2 mi West 17.3 mph - N/A   Scattered Clouds
8:30 PM 59.0 °F 46.4 °F 63% 30.04 in 6.2 mi West 16.1 mph - N/A   Scattered Clouds
9:00 PM 58 °F 43 °F 46% 30.05 in 12 mi West 16.1 mph - -   Partly Cloudy
9:00 PM 59.0 °F 42.8 °F 55% 30.04 in 6.2 mi West 16.1 mph - N/A   Mostly Cloudy
9:30 PM 58 °F 44 °F 50% 30.06 in - West 19.6 mph - -  
9:30 PM 59.0 °F 44.6 °F 59% 30.04 in 6.2 mi West 19.6 mph - N/A   Mostly Cloudy
10:00 PM 57.2 °F 46.4 °F 67% 30.04 in 6.2 mi West 17.3 mph - N/A   Mostly Cloudy
10:30 PM 57.2 °F 44.6 °F 63% 30.04 in 6.2 mi West 18.4 mph - N/A   Mostly Cloudy
11:00 PM 55.4 °F 46.4 °F 72% 30.04 in 6.2 mi WSW 20.7 mph - N/A   Scattered Clouds
11:29 PM 55.4 °F 48.2 °F 77% 30.04 in 6.2 mi WSW 17.3 mph 31.1 mph N/A   Mostly Cloudy
11:32 PM 53.6 °F 48.2 °F 82% 30.04 in 6.2 mi SW 23.0 mph - N/A   Mostly Cloudy